Weather History for Chicago Lansing, IL

Change the Weather History Date:

Sunday, June 9, 2013

  Actual Average (KMDW) Record (KMDW)
Temperature  
Mean Temperature 68 °F 69 °F  
Max Temperature 80 °F 78 °F 96 °F (1968)
Min Temperature 55 °F 60 °F 42 °F (1977)
Degree Days  
Heating Degree Days 0 1  
Month to date heating degree days 18  
Since 1 June heating degree days 18  
Since 1 July heating degree days 5977  
Cooling Degree Days 2 5  
Month to date cooling degree days 37  
Year to date cooling degree days 111  
Since 1 June cooling degree days 37  
Growing Degree Days 18 (Base 50)    
Moisture  
Dew Point 54 °F    
Average Humidity 58    
Maximum Humidity 85    
Minimum Humidity 39    
Precipitation  
Precipitation 0.00 in 0.14 in 2.58 in (2011)
Month to date precipitation 1.33  
Year to date precipitation 15.82  
Sea Level Pressure  
Sea Level Pressure 29.93 in    
Wind  
Wind Speed 4 mph (SSE)    
Max Wind Speed 15 mph    
Max Gust Speed 20 mph    
Visibility 10 miles    
Events Rain    
T = Trace of Precipitation, MM = Missing Value Source: NWS Daily Summary

Daily Weather History Graph

Daily Weather History Graph

Search for Another Location

Airport:

Trip Planner

Search our weather history database for the weather conditions in past years. The results will help you decide how hot, cold, wet, or windy it might be!

Date:

Astronomy

Jun. 09, 2013 Rise Set
Actual Time 5:15 AM CDT 8:23 PM CDT
Civil Twilight 4:42 AM CDT 8:56 PM CDT
Nautical Twilight 3:58 AM CDT 9:40 PM CDT
Astronomical Twilight 3:07 AM CDT 10:31 PM CDT
Moon 6:13 AM CDT (6/9) 9:08 PM CDT (6/9)
Length of Visible Light 16h 14m
Length of Day
15h 07m
New Moon, 1% of the Moon is Illuminated
Jun 9
New Moon
Jun 16
First Quarter
Jun 23
Full
Jun 29
Last Quarter
Jul 8
New

Hourly Weather History & Observations

Time (CDT) Temp. Heat Index Dew Point Humidity Pressure Visibility Wind Dir Wind Speed Gust Speed Precip Events Conditions
12:15 AM 58.1 °F - 46.8 °F 66% 30.01 in 10.0 mi Calm Calm - N/A   Scattered Clouds
12:35 AM 56.7 °F - 47.5 °F 71% 30.01 in 10.0 mi Calm Calm - N/A   Scattered Clouds
12:55 AM 57.7 °F - 49.3 °F 73% 30.01 in 10.0 mi Calm Calm - N/A   Overcast
1:15 AM 58.1 °F - 49.5 °F 73% 30.01 in 10.0 mi Calm Calm - N/A   Overcast
1:35 AM 59.9 °F - 49.5 °F 68% 30.00 in 10.0 mi East 4.6 mph - N/A   Overcast
1:55 AM 60.3 °F - 48.2 °F 64% 30.00 in 10.0 mi Calm Calm - N/A   Mostly Cloudy
2:15 AM 59.2 °F - 48.4 °F 67% 29.99 in 10.0 mi ENE 3.5 mph - N/A   Mostly Cloudy
2:35 AM 59.4 °F - 48.6 °F 67% 29.99 in 10.0 mi Calm Calm - N/A   Scattered Clouds
2:55 AM 57.6 °F - 48.7 °F 72% 29.99 in 10.0 mi Calm Calm - N/A   Scattered Clouds
3:15 AM 57.9 °F - 49.1 °F 72% 29.99 in 10.0 mi Calm Calm - N/A   Scattered Clouds
3:35 AM 57.7 °F - 48.9 °F 72% 29.99 in 10.0 mi Calm Calm - N/A   Mostly Cloudy
3:55 AM 57.2 °F - 49.3 °F 75% 29.99 in 10.0 mi Calm Calm - N/A   Scattered Clouds
4:15 AM 56.8 °F - 49.8 °F 77% 29.99 in 10.0 mi East 3.5 mph - N/A   Mostly Cloudy
4:55 AM 55.2 °F - 50.0 °F 83% 30.00 in 10.0 mi Calm Calm - N/A   Overcast
5:15 AM 57.4 °F - 49.6 °F 75% 30.00 in 10.0 mi Calm Calm - N/A   Overcast
5:35 AM 57.2 °F - 50.9 °F 79% 30.00 in 10.0 mi Calm Calm - N/A   Overcast
5:55 AM 57.2 °F - 52.0 °F 83% 30.00 in 10.0 mi Calm Calm - N/A   Mostly Cloudy
6:15 AM 57.6 °F - 53.1 °F 85% 30.00 in 10.0 mi ESE 3.5 mph - N/A   Mostly Cloudy
6:35 AM 59.0 °F - 54.1 °F 84% 29.99 in 10.0 mi ESE 3.5 mph - N/A   Mostly Cloudy
6:55 AM 60.8 °F - 55.0 °F 81% 29.99 in 10.0 mi ESE 4.6 mph - N/A   Overcast
7:15 AM 62.6 °F - 56.5 °F 80% 30.00 in 10.0 mi SSE 3.5 mph - N/A   Overcast
7:35 AM 64.6 °F - 58.1 °F 79% 29.99 in 10.0 mi SE 3.5 mph - N/A   Mostly Cloudy
7:55 AM 68.0 °F - 59.5 °F 74% 29.99 in 7.0 mi SSE 6.9 mph - N/A   Scattered Clouds
8:15 AM 69.4 °F - 60.4 °F 73% 29.99 in 7.0 mi SSE 8.1 mph - N/A   Scattered Clouds
8:35 AM 69.3 °F - 60.1 °F 72% 29.99 in 7.0 mi SSE 6.9 mph - N/A   Mostly Cloudy
8:55 AM 70.7 °F - 60.1 °F 69% 29.99 in 10.0 mi South 5.8 mph - N/A   Mostly Cloudy
9:15 AM 71.6 °F - 60.4 °F 68% 29.99 in 10.0 mi SSE 6.9 mph - N/A   Overcast
9:35 AM 73.4 °F - 60.6 °F 64% 29.98 in 10.0 mi SSE 5.8 mph - N/A   Scattered Clouds
9:55 AM 75.4 °F - 59.7 °F 58% 29.98 in 10.0 mi SE 5.8 mph - N/A   Clear
10:15 AM 75.7 °F - 58.5 °F 55% 29.97 in 10.0 mi South 8.1 mph - N/A   Clear
10:35 AM 76.5 °F - 58.3 °F 53% 29.97 in 10.0 mi South 10.4 mph - N/A   Clear
10:55 AM 77.5 °F - 58.5 °F 52% 29.97 in 10.0 mi South 6.9 mph - N/A   Scattered Clouds
11:15 AM 77.0 °F - 55.8 °F 48% 29.96 in 10.0 mi South 11.5 mph - N/A   Scattered Clouds
11:35 AM 75.2 °F - 55.9 °F 51% 29.96 in 10.0 mi South 10.4 mph - N/A   Mostly Cloudy
11:55 AM 77.0 °F - 55.6 °F 47% 29.96 in 10.0 mi South 12.7 mph 19.6 mph N/A   Overcast
12:15 PM 76.3 °F - 55.2 °F 48% 29.95 in 10.0 mi South 12.7 mph - N/A   Overcast
12:35 PM 79.3 °F - 54.5 °F 42% 29.94 in 10.0 mi South 13.8 mph 19.6 mph N/A   Mostly Cloudy
12:55 PM 79.7 °F - 54.9 °F 42% 29.94 in 10.0 mi South 12.7 mph 16.1 mph N/A   Scattered Clouds
1:15 PM 80.4 °F 80.2 °F 54.1 °F 40% 29.93 in 10.0 mi South 12.7 mph 19.6 mph N/A   Scattered Clouds
1:35 PM 80.1 °F 80.0 °F 53.8 °F 40% 29.92 in 10.0 mi South 11.5 mph 18.4 mph N/A   Mostly Cloudy
1:55 PM 80.8 °F 80.5 °F 54.7 °F 40% 29.91 in 10.0 mi SSE 10.4 mph 18.4 mph N/A   Mostly Cloudy
2:15 PM 79.3 °F - 54.0 °F 41% 29.91 in 10.0 mi SSE 15.0 mph 19.6 mph N/A   Mostly Cloudy
2:35 PM 80.4 °F 80.2 °F 54.3 °F 40% 29.90 in 10.0 mi SE 12.7 mph 17.3 mph N/A   Scattered Clouds
2:55 PM 79.0 °F - 53.1 °F 40% 29.89 in 10.0 mi South 10.4 mph - N/A   Scattered Clouds
3:15 PM 78.1 °F - 53.1 °F 42% 29.89 in 10.0 mi SSE 11.5 mph - N/A   Mostly Cloudy
3:35 PM 78.1 °F - 52.7 °F 41% 29.88 in 10.0 mi SE 11.5 mph - N/A   Overcast
3:55 PM 79.0 °F - 54.0 °F 42% 29.88 in 10.0 mi SSE 8.1 mph - N/A   Overcast
4:15 PM 79.0 °F - 52.3 °F 39% 29.87 in 10.0 mi SSE 11.5 mph - N/A   Mostly Cloudy
4:35 PM 78.8 °F - 52.0 °F 39% 29.87 in 10.0 mi SE 11.5 mph - N/A   Overcast
4:55 PM 79.9 °F - 53.4 °F 40% 29.86 in 10.0 mi SSE 11.5 mph - N/A   Scattered Clouds
5:15 PM 79.0 °F - 52.3 °F 39% 29.86 in 10.0 mi SSE 11.5 mph - N/A   Scattered Clouds
5:35 PM 78.6 °F - 52.9 °F 41% 29.86 in 10.0 mi SE 10.4 mph 16.1 mph N/A   Clear
5:55 PM 77.9 °F - 52.7 °F 41% 29.85 in 10.0 mi SSE 8.1 mph - N/A   Clear
6:15 PM 77.7 °F - 52.7 °F 42% 29.84 in 10.0 mi SSE 9.2 mph - N/A   Clear
6:35 PM 77.0 °F - 53.2 °F 44% 29.84 in 10.0 mi SSE 6.9 mph - N/A   Clear
6:55 PM 76.6 °F - 53.4 °F 44% 29.84 in 10.0 mi SSE 5.8 mph - N/A   Clear
7:15 PM 75.7 °F - 54.1 °F 47% 29.84 in 10.0 mi SE 4.6 mph - N/A   Clear
7:35 PM 75.4 °F - 54.3 °F 48% 29.84 in 10.0 mi SE 5.8 mph - N/A   Clear
7:55 PM 75.6 °F - 53.6 °F 46% 29.83 in 10.0 mi SE 5.8 mph - N/A   Mostly Cloudy
8:15 PM 74.8 °F - 53.6 °F 47% 29.83 in 10.0 mi SE 5.8 mph - N/A   Mostly Cloudy
8:35 PM 73.6 °F - 53.6 °F 50% 29.83 in 10.0 mi SE 5.8 mph - N/A   Scattered Clouds
8:55 PM 72.9 °F - 53.8 °F 51% 29.83 in 10.0 mi SE 5.8 mph - N/A   Clear
9:15 PM 72.0 °F - 54.5 °F 54% 29.83 in 10.0 mi SE 4.6 mph - N/A   Clear
9:35 PM 72.0 °F - 54.5 °F 54% 29.83 in 10.0 mi SE 4.6 mph - N/A   Clear
9:55 PM 71.8 °F - 54.5 °F 54% 29.83 in 10.0 mi SSE 4.6 mph - N/A   Clear
10:15 PM 72.0 °F - 54.5 °F 54% 29.83 in 10.0 mi SSE 4.6 mph - N/A   Mostly Cloudy
10:35 PM 71.8 °F - 55.6 °F 57% 29.83 in 10.0 mi SSE 6.9 mph - N/A Rain Light Rain
10:55 PM 70.9 °F - 57.2 °F 62% 29.83 in 10.0 mi South 8.1 mph - N/A   Overcast
11:15 PM 70.3 °F - 58.1 °F 65% 29.83 in 10.0 mi South 6.9 mph - N/A Rain Light Rain
11:35 PM 69.1 °F - 59.4 °F 71% 29.84 in 10.0 mi South 5.8 mph - N/A Rain Rain
11:55 PM 68.0 °F - 61.2 °F 79% 29.84 in 10.0 mi SSE 4.6 mph - N/A Rain Light Rain